Location: D�rnast
(49.6426°N, 11.9755°E)
Time: 12:02:15
(UTC+00:00)

CSL-04 Rocket - Pass Details

Date: 24 January 2021
Orbit: 806 x 860 km, 98.9° (Epoch: 26 February)

Event Time Altitude Azimuth Distance (km) Brightness Sun altitude
Rises 17:24:09 0° 141° (SE) 3,368 6.6 -14.4°
Reaches altitude 10° 17:26:35 10° 135° (SE) 2,446 5.8 -14.7°
Maximum altitude 17:31:40 43° 65° (ENE) 1,172 4.0 -15.5°
Drops below altitude 10° 17:36:51 10° 356° (N) 2,492 6.1 -16.4°
Sets 17:39:21 0° 350° (N) 3,438 6.9 -16.8°
